Total_Precipitation_Accumulation
0.64 0.62 0.62 0.60 0.57 0.57 0.66 0.78 1.22 1.60 2.05 2.42 2.32 2.46 2.73 2.72 2.55 2.42 2.47 2.48 2.43 2.49 2.43 2.39 2.35 2.20 2.06 1.90 1.76 1.68 1.65 1.62 1.70 1.82 1.83 1.77 1.70 1.66 1.61 1.53 1.41 1.41 1.41 1.32
0.62 0.55 0.59 0.65 0.68 0.63 0.65 0.82 1.19 1.60 2.12 2.23 2.23 2.33 2.47 2.61 2.55 2.44 2.45 2.51 2.57 2.71 2.67 2.62 2.57 2.39 2.23 2.06 1.80 1.65 1.62 1.59 1.63 1.70 1.70 1.65 1.62 1.58 1.53 1.48 1.48 1.46 1.44 1.38
0.80 0.58 0.84 1.21 1.04 0.90 0.89 1.00 1.30 1.73 1.96 1.91 2.04 2.30 2.43 2.50 2.60 2.59 2.68 2.81 2.85 2.78 2.77 2.72 2.65 2.65 2.64 2.36 2.04 1.89 1.76 1.64 1.62 1.59 1.55 1.52 1.41 1.39 1.46 1.48 1.47 1.41 1.38 1.39
1.00 1.09 1.67 1.54 1.04 0.96 1.11 1.28 1.37 1.49 1.55 1.76 2.01 2.21 2.36 2.54 2.74 2.77 2.75 2.69 2.75 2.69 2.70 2.68 2.60 2.58 2.57 2.47 2.22 1.92 1.78 1.64 1.53 1.53 1.49 1.50 1.47 1.45 1.49 1.51 1.44 1.44 1.40 1.37
1.25 1.59 1.70 1.56 1.12 1.12 1.35 1.73 1.55 1.58 1.58 1.72 1.88 2.09 2.47 2.52 2.59 2.80 2.66 2.53 2.60 2.69 2.73 2.72 2.63 2.45 2.37 2.27 2.17 2.03 1.80 1.57 1.44 1.45 1.43 1.42 1.44 1.44 1.48 1.50 1.42 1.37 1.36 1.40
1.49 1.87 2.08 1.84 1.08 0.94 1.40 2.45 1.85 1.72 1.76 1.77 1.94 2.48 2.61 2.32 2.23 2.33 2.40 2.50 2.61 2.72 2.78 2.77 2.71 2.40 2.25 2.14 1.99 1.82 1.58 1.43 1.37 1.39 1.33 1.30 1.36 1.41 1.44 1.47 1.43 1.38 1.35 1.39
1.65 2.11 2.20 1.37 0.88 1.02 2.04 2.54 1.94 1.82 1.81 1.88 2.13 2.30 2.09 1.91 1.98 2.13 2.31 2.45 2.54 2.58 2.61 2.57 2.55 2.33 2.21 2.01 1.85 1.55 1.32 1.27 1.31 1.31 1.26 1.21 1.25 1.31 1.38 1.36 1.39 1.41 1.33 1.31
1.84 2.30 2.43 1.21 1.01 1.45 1.82 1.51 1.45 1.47 1.47 1.53 1.65 1.71 1.75 1.78 1.86 1.94 2.09 2.28 2.36 2.41 2.40 2.30 2.22 2.14 2.03 1.85 1.58 1.38 1.26 1.21 1.28 1.35 1.18 1.09 1.18 1.17 1.21 1.37 1.34 1.31 1.33 1.23
2.05 2.41 2.00 1.31 1.27 1.28 1.31 1.32 1.26 1.30 1.28 1.31 1.39 1.45 1.58 1.77 1.86 1.88 1.86 2.04 2.09 2.00 1.89 1.91 1.86 1.82 1.75 1.57 1.37 1.28 1.30 1.35 1.34 1.31 1.24 1.23 1.25 1.20 1.22 1.31 1.32 1.24 1.22 1.13
1.81 1.90 1.58 1.27 1.18 1.18 1.08 1.05 1.07 1.20 1.20 1.15 1.14 1.10 1.23 1.40 1.58 1.69 1.68 1.67 1.75 1.73 1.65 1.62 1.56 1.48 1.42 1.29 1.26 1.27 1.32 1.41 1.49 1.36 1.22 1.23 1.29 1.18 1.18 1.18 1.19 1.17 1.14 1.12
1.92 1.87 1.63 1.43 1.23 1.13 1.10 1.07 1.10 1.14 1.07 0.98 0.92 0.91 0.96 1.12 1.24 1.36 1.47 1.41 1.42 1.53 1.55 1.43 1.32 1.28 1.22 1.13 1.15 1.30 1.35 1.32 1.37 1.31 1.25 1.25 1.24 1.11 1.05 1.01 1.05 1.12 1.11 1.12
2.16 1.82 1.72 1.58 1.24 1.04 1.06 1.07 1.02 0.97 0.92 0.90 0.85 0.83 0.86 1.03 1.15 1.22 1.28 1.31 1.35 1.39 1.37 1.29 1.21 1.14 1.08 1.01 1.05 1.23 1.31 1.27 1.20 1.17 1.19 1.15 1.19 1.17 1.11 1.04 1.00 0.94 0.96 0.92
1.52 1.31 1.27 1.21 1.09 1.07 0.99 0.92 0.94 0.89 0.82 0.81 0.79 0.73 0.81 0.96 1.00 1.06 1.14 1.18 1.28 1.27 1.22 1.13 1.09 1.12 1.12 1.06 1.01 1.10 1.16 1.14 1.12 1.10 1.11 1.08 1.09 1.16 1.16 0.99 0.89 0.85 0.86 0.82
1.16 1.19 1.27 1.09 0.95 0.90 0.83 0.76 0.78 0.76 0.76 0.78 0.79 0.73 0.73 0.78 0.82 0.91 1.02 1.07 1.10 1.04 1.08 1.11 1.05 1.01 1.01 0.98 0.93 0.91 0.97 0.93 0.91 0.95 0.96 0.97 0.98 0.97 0.97 0.95 0.92 0.83 0.78 0.79
1.01 1.02 1.10 0.93 0.76 0.77 0.77 0.71 0.77 0.79 0.78 0.79 0.78 0.70 0.66 0.73 0.79 0.84 0.87 0.89 0.93 0.91 0.90 0.96 1.03 0.99 0.90 0.86 0.86 0.83 0.84 0.85 0.79 0.79 0.86 0.88 0.89 0.89 0.86 0.86 0.86 0.83 0.76 0.73
0.95 0.89 0.84 0.78 0.70 0.71 0.77 0.79 0.80 0.82 0.83 0.82 0.80 0.74 0.69 0.74 0.82 0.83 0.81 0.81 0.85 0.82 0.78 0.81 0.89 0.86 0.80 0.75 0.74 0.77 0.75 0.78 0.73 0.67 0.69 0.76 0.78 0.79 0.77 0.78 0.78 0.77 0.73 0.68
1.03 1.01 0.90 0.83 0.81 0.82 0.82 0.80 0.75 0.73 0.74 0.81 0.79 0.70 0.66 0.71 0.82 0.83 0.85 0.76 0.70 0.69 0.64 0.66 0.73 0.75 0.76 0.72 0.67 0.64 0.66 0.69 0.72 0.67 0.62 0.63 0.63 0.64 0.63 0.66 0.72 0.75 0.70 0.68
0.92 0.91 0.87 0.89 0.86 0.83 0.80 0.72 0.69 0.68 0.68 0.73 0.74 0.73 0.73 0.78 0.80 0.75 0.74 0.65 0.62 0.62 0.57 0.53 0.61 0.69 0.75 0.76 0.68 0.62 0.60 0.64 0.65 0.64 0.63 0.61 0.58 0.59 0.61 0.62 0.61 0.67 0.68 0.74
0.77 0.77 0.78 0.81 0.81 0.83 0.81 0.73 0.69 0.63 0.63 0.66 0.72 0.78 0.81 0.81 0.78 0.71 0.67 0.67 0.70 0.74 0.65 0.57 0.64 0.67 0.70 0.71 0.74 0.72 0.70 0.69 0.67 0.68 0.67 0.64 0.61 0.63 0.68 0.67 0.64 0.63 0.64 0.69
0.72 0.71 0.72 0.74 0.69 0.70 0.71 0.66 0.63 0.60 0.63 0.69 0.68 0.67 0.76 0.76 0.73 0.71 0.70 0.73 0.69 0.66 0.60 0.57 0.57 0.64 0.67 0.67 0.74 0.72 0.75 0.73 0.69 0.72 0.77 0.74 0.70 0.70 0.68 0.69 0.70 0.71 0.71 0.75
0.72 0.72 0.70 0.68 0.62 0.56 0.56 0.59 0.60 0.62 0.67 0.71 0.65 0.61 0.67 0.70 0.66 0.70 0.74 0.71 0.62 0.58 0.62 0.62 0.55 0.57 0.62 0.68 0.76 0.74 0.75 0.75 0.74 0.72 0.74 0.77 0.73 0.76 0.76 0.74 0.74 0.75 0.78 0.79
0.78 0.79 0.71 0.70 0.66 0.60 0.58 0.61 0.58 0.57 0.58 0.61 0.60 0.62 0.66 0.68 0.67 0.70 0.74 0.68 0.55 0.53 0.52 0.56 0.55 0.57 0.59 0.64 0.66 0.69 0.70 0.72 0.74 0.71 0.69 0.73 0.75 0.78 0.78 0.77 0.80 0.80 0.80 0.80
0.85 0.83 0.74 0.75 0.73 0.71 0.68 0.59 0.52 0.53 0.58 0.59 0.60 0.62 0.64 0.68 0.68 0.71 0.70 0.61 0.53 0.53 0.49 0.49 0.54 0.55 0.54 0.52 0.56 0.63 0.63 0.66 0.70 0.71 0.69 0.70 0.74 0.76 0.73 0.75 0.81 0.82 0.77 0.76
0.87 0.87 0.77 0.74 0.69 0.75 0.75 0.62 0.55 0.60 0.67 0.63 0.62 0.61 0.60 0.60 0.63 0.61 0.59 0.63 0.61 0.57 0.50 0.52 0.54 0.52 0.51 0.45 0.49 0.56 0.61 0.61 0.62 0.65 0.67 0.65 0.67 0.72 0.72 0.73 0.78 0.78 0.73 0.70
0.90 0.91 0.84 0.82 0.84 0.84 0.80 0.72 0.68 0.66 0.66 0.64 0.61 0.61 0.60 0.60 0.64 0.62 0.57 0.54 0.59 0.55 0.48 0.51 0.54 0.53 0.47 0.46 0.50 0.52 0.54 0.60 0.62 0.58 0.57 0.58 0.59 0.62 0.67 0.70 0.72 0.71 0.72 0.74
0.98 1.01 0.95 0.92 0.90 0.86 0.81 0.80 0.82 0.78 0.74 0.73 0.69 0.66 0.61 0.56 0.58 0.62 0.55 0.51 0.52 0.50 0.45 0.47 0.50 0.52 0.46 0.46 0.51 0.52 0.49 0.53 0.57 0.58 0.58 0.60 0.62 0.62 0.64 0.65 0.65 0.66 0.68 0.72
0.98 0.99 0.97 0.87 0.80 0.78 0.85 0.88 0.89 0.88 0.84 0.84 0.83 0.76 0.66 0.62 0.59 0.60 0.59 0.57 0.54 0.51 0.48 0.50 0.52 0.52 0.51 0.51 0.53 0.54 0.49 0.49 0.52 0.52 0.54 0.58 0.61 0.63 0.64 0.65 0.65 0.64 0.63 0.66